| time (UTC) | temp F | wind direction | speed MPH | gust MPH | rain 1hr in | rain 24hr in | rain mn in | humidity % | barometer mb |
| 20260510121739 | 64 | 94 | 0.0 | 2.0 | 0.00 | 0.00 | 0.00 | 79 | 1010.4 |
| 20260510121237 | 63 | 77 | 0.0 | 3.0 | 0.00 | 0.00 | 0.00 | 80 | 1010.3 |
| 20260510120739 | 63 | 15 | 0.0 | 3.0 | 0.00 | 0.00 | 0.00 | 80 | 1010.3 |
| 20260510120237 | 63 | 111 | 0.0 | 1.0 | 0.00 | 0.00 | 0.00 | 80 | 1010.3 |
| 20260510115234 | 62 | 75 | 0.0 | 2.0 | 0.00 | 0.00 | 0.00 | 83 | 1010.2 |
| 20260510114731 | 62 | 89 | 0.0 | 2.0 | 0.00 | 0.00 | 0.00 | 82 | 1010.1 |
| 20260510114231 | 62 | 120 | 0.0 | 1.0 | 0.00 | 0.00 | 0.00 | 83 | 1010.2 |
| 20260510113231 | 61 | 122 | 0.0 | 0.0 | 0.00 | 0.00 | 0.00 | 85 | 1010.0 |
| 20260510112729 | 61 | 122 | 0.0 | 0.0 | 0.00 | 0.00 | 0.00 | 86 | 1009.9 |
| 20260510112229 | 60 | 120 | 0.0 | 1.0 | 0.00 | 0.00 | 0.00 | 87 | 1009.7 |
| 20260510111727 | 59 | 100 | 0.0 | 1.0 | 0.00 | 0.00 | 0.00 | 89 | 1009.6 |
| 20260510111225 | 58 | 101 | 0.0 | 1.0 | 0.00 | 0.00 | 0.00 | 88 | 1009.6 |
| 20260510110723 | 59 | 86 | 0.0 | 0.0 | 0.00 | 0.00 | 0.00 | 88 | 1009.4 |
| 20260510105721 | 58 | 346 | 0.0 | 0.0 | 0.00 | 0.00 | 0.00 | 93 | 1009.2 |
| 20260510105220 | 57 | 346 | 0.0 | 0.0 | 0.00 | 0.00 | 0.00 | 93 | 1009.1 |
| 20260510104716 | 56 | 346 | 0.0 | 0.0 | 0.00 | 0.00 | 0.00 | 93 | 1009.1 |
| 20260510103215 | 55 | 346 | 0.0 | 0.0 | 0.00 | 0.00 | 0.00 | 92 | 1008.9 |
| 20260510102713 | 55 | 346 | 0.0 | 0.0 | 0.00 | 0.00 | 0.00 | 92 | 1008.9 |
| 20260510102214 | 55 | 346 | 0.0 | 0.0 | 0.00 | 0.00 | 0.00 | 91 | 1008.7 |
| 20260510101706 | 56 | 346 | 0.0 | 0.0 | 0.00 | 0.00 | 0.00 | 91 | 1008.6 |
| 20260510101206 | 56 | 346 | 0.0 | 0.0 | 0.00 | 0.00 | 0.00 | 92 | 1008.6 |
| 20260510100704 | 56 | 346 | 0.0 | 0.0 | 0.00 | 0.00 | 0.00 | 92 | 1008.5 |
| 20260510100202 | 56 | 345 | 0.0 | 0.0 | 0.00 | 0.00 | 0.00 | 91 | 1008.6 |
| 20260510095703 | 56 | 346 | 0.0 | 0.0 | 0.00 | 0.00 | 0.00 | 92 | 1008.5 |
| 20260510095159 | 56 | 346 | 0.0 | 0.0 | 0.00 | 0.00 | 0.00 | 91 | 1008.6 |
| 20260510094657 | 56 | 346 | 0.0 | 0.0 | 0.00 | 0.00 | 0.00 | 91 | 1008.5 |
| 20260510094158 | 56 | 346 | 0.0 | 0.0 | 0.00 | 0.00 | 0.00 | 91 | 1008.6 |
| 20260510093657 | 56 | 345 | 0.0 | 0.0 | 0.00 | 0.00 | 0.00 | 91 | 1008.5 |
| 20260510093155 | 56 | 346 | 0.0 | 0.0 | 0.00 | 0.00 | 0.00 | 91 | 1008.5 |
| 20260510092655 | 56 | 346 | 0.0 | 0.0 | 0.00 | 0.00 | 0.00 | 90 | 1008.5 |
| 20260510092151 | 56 | 346 | 0.0 | 0.0 | 0.00 | 0.00 | 0.00 | 90 | 1008.5 |
| 20260510091651 | 56 | 346 | 0.0 | 0.0 | 0.00 | 0.00 | 0.00 | 90 | 1008.5 |
| 20260510084640 | 57 | 346 | 0.0 | 0.0 | 0.00 | 0.00 | 0.00 | 90 | 1008.3 |
| 20260510084139 | 57 | 346 | 0.0 | 0.0 | 0.00 | 0.00 | 0.00 | 90 | 1008.3 |
| 20260510083637 | 58 | 346 | 0.0 | 0.0 | 0.00 | 0.00 | 0.00 | 89 | 1008.2 |
| 20260510083137 | 58 | 346 | 0.0 | 2.0 | 0.00 | 0.00 | 0.00 | 90 | 1008.2 |
| 20260510081632 | 57 | 15 | 0.0 | 1.0 | 0.00 | 0.00 | 0.00 | 90 | 1008.0 |
| 20260510080628 | 57 | 334 | 0.0 | 0.0 | 0.00 | 0.00 | 0.00 | 90 | 1007.7 |
| 20260510080129 | 57 | 334 | 0.0 | 0.0 | 0.00 | 0.00 | 0.00 | 90 | 1007.7 |
| 20260510074623 | 57 | 75 | 0.0 | 1.0 | 0.00 | 0.00 | 0.00 | 90 | 1007.4 |
| 20260510074122 | 57 | 100 | 0.0 | 0.0 | 0.00 | 0.00 | 0.00 | 90 | 1007.5 |
| 20260510073620 | 57 | 100 | 0.0 | 0.0 | 0.00 | 0.00 | 0.00 | 89 | 1007.5 |
| 20260510073123 | 57 | 101 | 0.0 | 0.0 | 0.00 | 0.00 | 0.00 | 89 | 1007.5 |
| 20260510072622 | 58 | 100 | 0.0 | 0.0 | 0.00 | 0.00 | 0.00 | 89 | 1007.5 |
| 20260510071616 | 58 | 101 | 0.0 | 0.0 | 0.00 | 0.00 | 0.00 | 89 | 1007.4 |
| 20260510071117 | 58 | 100 | 0.0 | 0.0 | 0.00 | 0.00 | 0.00 | 89 | 1007.3 |
| 20260510065618 | 58 | 100 | 0.0 | 0.0 | 0.00 | 0.00 | 0.00 | 88 | 1007.1 |
| 20260510065117 | 58 | 101 | 0.0 | 0.0 | 0.00 | 0.00 | 0.00 | 88 | 1007.1 |
| 20260510064611 | 59 | 100 | 0.0 | 0.0 | 0.00 | 0.00 | 0.00 | 88 | 1007.1 |
| 20260510064107 | 59 | 101 | 0.0 | 0.0 | 0.00 | 0.00 | 0.00 | 88 | 1007.2 |
| 20260510063607 | 59 | 101 | 0.0 | 1.0 | 0.00 | 0.00 | 0.00 | 87 | 1007.1 |
| 20260510063105 | 59 | 100 | 0.0 | 1.0 | 0.00 | 0.00 | 0.00 | 87 | 1007.0 |
| 20260510062605 | 59 | 71 | 0.0 | 1.0 | 0.00 | 0.00 | 0.00 | 87 | 1007.1 |
| 20260510062059 | 59 | 70 | 0.0 | 4.0 | 0.00 | 0.00 | 0.00 | 87 | 1007.1 |
| 20260510061557 | 60 | 32 | 1.0 | 4.0 | 0.00 | 0.00 | 0.00 | 87 | 1007.0 |
| 20260510061056 | 60 | 15 | 1.0 | 4.0 | 0.00 | 0.00 | 0.00 | 87 | 1007.2 |
| 20260510060556 | 60 | 103 | 1.0 | 4.0 | 0.00 | 0.00 | 0.00 | 87 | 1007.0 |
| 20260510060056 | 60 | 33 | 1.0 | 4.0 | 0.00 | 0.00 | 0.00 | 87 | 1007.1 |
| 20260510054554 | 60 | 27 | 1.0 | 4.0 | 0.00 | 0.00 | 0.00 | 86 | 1007.1 |
| 20260510053551 | 60 | 30 | 1.0 | 5.0 | 0.00 | 0.00 | 0.00 | 86 | 1007.0 |
| 20260510053050 | 60 | 22 | 0.0 | 4.0 | 0.00 | 0.00 | 0.00 | 86 | 1007.1 |
| 20260510052550 | 60 | 26 | 0.0 | 1.0 | 0.00 | 0.00 | 0.00 | 86 | 1007.1 |
| 20260510052044 | 60 | 23 | 0.0 | 1.0 | 0.00 | 0.00 | 0.00 | 86 | 1007.1 |
| 20260510051542 | 60 | 30 | 0.0 | 1.0 | 0.00 | 0.00 | 0.00 | 86 | 1007.0 |
| 20260510051043 | 60 | 94 | 0.0 | 0.0 | 0.00 | 0.00 | 0.00 | 85 | 1007.0 |
| 20260510050543 | 60 | 94 | 0.0 | 0.0 | 0.00 | 0.00 | 0.00 | 85 | 1007.0 |
| 20260510045545 | 61 | 95 | 0.0 | 1.0 | 0.00 | 0.00 | 0.00 | 84 | 1007.0 |
| 20260510045037 | 61 | 95 | 0.0 | 1.0 | 0.00 | 0.00 | 0.00 | 84 | 1007.0 |
| 20260510044538 | 61 | 94 | 0.0 | 1.0 | 0.00 | 0.00 | 0.00 | 84 | 1007.1 |
| 20260510044036 | 61 | 109 | 0.0 | 0.0 | 0.00 | 0.00 | 0.00 | 83 | 1007.2 |
| 20260510043537 | 61 | 108 | 0.0 | 0.0 | 0.00 | 0.00 | 0.00 | 83 | 1007.2 |
| 20260510043034 | 61 | 91 | 0.0 | 1.0 | 0.00 | 0.00 | 0.00 | 83 | 1007.2 |
| 20260510042030 | 61 | 93 | 0.0 | 1.0 | 0.00 | 0.00 | 0.00 | 83 | 1007.2 |
| 20260510041530 | 62 | 77 | 0.0 | 1.0 | 0.00 | 0.00 | 0.00 | 82 | 1007.2 |
| 20260510041032 | 62 | 76 | 0.0 | 1.0 | 0.00 | 0.00 | 0.00 | 81 | 1007.1 |
| 20260510040027 | 62 | 76 | 0.0 | 0.0 | 0.00 | 0.00 | 0.00 | 80 | 1007.1 |
| 20260510035528 | 63 | 75 | 0.0 | 4.0 | 0.00 | 0.00 | 0.00 | 80 | 1007.0 |
| 20260510035029 | 63 | 73 | 1.0 | 4.0 | 0.00 | 0.00 | 0.00 | 79 | 1007.0 |
| 20260510034527 | 63 | 71 | 1.0 | 4.0 | 0.00 | 0.00 | 0.00 | 78 | 1006.9 |
| 20260510034024 | 63 | 94 | 1.0 | 4.0 | 0.00 | 0.00 | 0.00 | 78 | 1006.9 |
| 20260510033525 | 64 | 102 | 1.0 | 4.0 | 0.00 | 0.00 | 0.00 | 77 | 1006.9 |
| 20260510033026 | 64 | 103 | 1.0 | 4.0 | 0.00 | 0.00 | 0.00 | 77 | 1006.9 |
| 20260510032523 | 64 | 102 | 1.0 | 4.0 | 0.00 | 0.00 | 0.00 | 76 | 1006.9 |
| 20260510032024 | 64 | 94 | 2.0 | 6.0 | 0.00 | 0.00 | 0.00 | 76 | 1006.9 |
| 20260510031523 | 65 | 89 | 1.0 | 6.0 | 0.00 | 0.00 | 0.00 | 75 | 1006.8 |
| 20260510031020 | 65 | 83 | 1.0 | 3.0 | 0.00 | 0.00 | 0.00 | 75 | 1006.9 |
| 20260510030518 | 65 | 91 | 1.0 | 5.0 | 0.00 | 0.00 | 0.00 | 74 | 1006.8 |
| 20260510030018 | 65 | 30 | 1.0 | 5.0 | 0.00 | 0.00 | 0.00 | 74 | 1006.8 |
| 20260510025020 | 66 | 97 | 0.0 | 1.0 | 0.00 | 0.00 | 0.00 | 73 | 1006.7 |
| 20260510024519 | 66 | 98 | 0.0 | 1.0 | 0.00 | 0.00 | 0.00 | 73 | 1006.7 |
| 20260510024017 | 66 | 99 | 0.0 | 1.0 | 0.00 | 0.00 | 0.00 | 72 | 1006.6 |
| 20260510023509 | 67 | 99 | 0.0 | 1.0 | 0.00 | 0.00 | 0.00 | 72 | 1006.6 |
| 20260510023007 | 67 | 109 | 0.0 | 1.0 | 0.00 | 0.00 | 0.00 | 71 | 1006.6 |
| 20260510022007 | 67 | 109 | 0.0 | 0.0 | 0.00 | 0.00 | 0.00 | 71 | 1006.5 |
| 20260510021006 | 67 | 109 | 0.0 | 0.0 | 0.00 | 0.00 | 0.00 | 71 | 1006.4 |
| 20260510015957 | 67 | 109 | 0.0 | 0.0 | 0.00 | 0.00 | 0.00 | 70 | 1006.4 |
| 20260510015458 | 67 | 108 | 0.0 | 0.0 | 0.00 | 0.00 | 0.00 | 71 | 1006.3 |
| 20260510014956 | 67 | 109 | 0.0 | 0.0 | 0.00 | 0.00 | 0.00 | 71 | 1006.3 |
| 20260510014457 | 67 | 108 | 0.0 | 1.0 | 0.00 | 0.00 | 0.00 | 70 | 1006.3 |
| 20260510013958 | 67 | 108 | 0.0 | 1.0 | 0.00 | 0.00 | 0.00 | 70 | 1006.1 |
| 20260510013459 | 67 | 195 | 0.0 | 1.0 | 0.00 | 0.00 | 0.00 | 69 | 1006.1 |
| 20260510012457 | 68 | 101 | 0.0 | 0.0 | 0.00 | 0.00 | 0.00 | 68 | 1005.9 |
| 20260510012000 | 68 | 101 | 0.0 | 0.0 | 0.00 | 0.00 | 0.00 | 67 | 1005.9 |
| 20260510011457 | 68 | 194 | 0.0 | 3.0 | 0.00 | 0.00 | 0.00 | 67 | 1005.7 |
| 20260510010956 | 68 | 167 | 0.0 | 3.0 | 0.00 | 0.00 | 0.00 | 67 | 1005.7 |
| 20260510010457 | 68 | 91 | 1.0 | 5.0 | 0.00 | 0.00 | 0.00 | 67 | 1005.7 |
| 20260510005956 | 69 | 101 | 2.0 | 5.0 | 0.00 | 0.00 | 0.00 | 67 | 1005.6 |
| 20260510005459 | 69 | 79 | 2.0 | 5.0 | 0.00 | 0.00 | 0.00 | 66 | 1005.6 |
| 20260510004954 | 69 | 64 | 1.0 | 5.0 | 0.00 | 0.00 | 0.00 | 66 | 1005.5 |
| 20260510003954 | 69 | 204 | 0.0 | 0.0 | 0.00 | 0.00 | 0.00 | 62 | 1005.4 |
| 20260510003452 | 69 | 204 | 0.0 | 0.0 | 0.00 | 0.00 | 0.00 | 61 | 1005.3 |
| 20260510002449 | 70 | 204 | 0.0 | 0.0 | 0.00 | 0.00 | 0.00 | 60 | 1005.3 |
| 20260510001951 | 70 | 203 | 0.0 | 0.0 | 0.00 | 0.00 | 0.00 | 59 | 1005.2 |
| 20260510001446 | 71 | 204 | 0.0 | 0.0 | 0.00 | 0.00 | 0.00 | 58 | 1005.2 |
| 20260510000946 | 71 | 204 | 0.0 | 0.0 | 0.00 | 0.00 | 0.00 | 58 | 1005.1 |
| 20260510000444 | 72 | 210 | 0.0 | 1.0 | 0.00 | 0.00 | 0.00 | 57 | 1005.1 |
| 20260509235443 | 72 | 210 | 0.0 | 3.0 | 0.00 | 0.00 | 0.00 | 55 | 1005.1 |
| 20260509234443 | 73 | 214 | 0.0 | 2.0 | 0.00 | 0.00 | 0.00 | 55 | 1004.9 |
| 20260509233938 | 73 | 204 | 0.0 | 4.0 | 0.00 | 0.00 | 0.00 | 54 | 1004.9 |
| 20260509233439 | 73 | 215 | 1.0 | 4.0 | 0.00 | 0.00 | 0.00 | 54 | 1004.9 |
| 20260509232438 | 74 | 217 | 1.0 | 5.0 | 0.00 | 0.00 | 0.00 | 54 | 1004.9 |
| 20260509231938 | 74 | 211 | 0.0 | 4.0 | 0.00 | 0.00 | 0.00 | 53 | 1004.9 |
| 20260509231441 | 74 | 248 | 1.0 | 4.0 | 0.00 | 0.00 | 0.00 | 54 | 1004.8 |
| 20260509230935 | 74 | 219 | 1.0 | 4.0 | 0.00 | 0.00 | 0.00 | 54 | 1004.8 |
| 20260509230436 | 74 | 174 | 1.0 | 4.0 | 0.00 | 0.00 | 0.00 | 54 | 1004.9 |
| 20260509225935 | 74 | 203 | 1.0 | 4.0 | 0.00 | 0.00 | 0.00 | 54 | 1004.8 |
| 20260509225434 | 74 | 128 | 2.0 | 6.0 | 0.00 | 0.00 | 0.00 | 54 | 1004.8 |
| 20260509224934 | 74 | 195 | 2.0 | 6.0 | 0.00 | 0.00 | 0.00 | 53 | 1004.8 |
| 20260509224436 | 74 | 229 | 1.0 | 5.0 | 0.00 | 0.00 | 0.00 | 53 | 1004.9 |
| 20260509223930 | 74 | 221 | 1.0 | 5.0 | 0.00 | 0.00 | 0.00 | 53 | 1004.8 |
| 20260509223431 | 74 | 181 | 1.0 | 5.0 | 0.00 | 0.00 | 0.00 | 53 | 1004.8 |
| 20260509222431 | 74 | 195 | 2.0 | 8.0 | 0.00 | 0.00 | 0.00 | 53 | 1005.1 |
| 20260509221433 | 74 | 215 | 3.0 | 8.0 | 0.00 | 0.00 | 0.00 | 53 | 1005.1 |
| 20260509220929 | 74 | 200 | 2.0 | 8.0 | 0.00 | 0.00 | 0.00 | 52 | 1005.1 |
| 20260509220426 | 74 | 179 | 2.0 | 6.0 | 0.00 | 0.00 | 0.00 | 52 | 1004.9 |
| 20260509215428 | 74 | 217 | 3.0 | 8.0 | 0.00 | 0.00 | 0.00 | 52 | 1004.9 |
| 20260509214927 | 75 | 217 | 3.0 | 8.0 | 0.00 | 0.00 | 0.00 | 51 | 1004.9 |
| 20260509213923 | 76 | 212 | 4.0 | 10.0 | 0.00 | 0.00 | 0.00 | 50 | 1004.9 |
| 20260509213424 | 76 | 201 | 3.0 | 8.0 | 0.00 | 0.00 | 0.00 | 49 | 1004.8 |
| 20260509212922 | 76 | 231 | 3.0 | 9.0 | 0.00 | 0.00 | 0.00 | 51 | 1004.9 |
| 20260509212423 | 75 | 212 | 3.0 | 9.0 | 0.00 | 0.00 | 0.00 | 51 | 1004.9 |
| 20260509211922 | 76 | 173 | 3.0 | 9.0 | 0.00 | 0.00 | 0.00 | 51 | 1004.9 |
| 20260509210418 | 76 | 266 | 3.0 | 9.0 | 0.00 | 0.00 | 0.00 | 50 | 1004.8 |
| 20260509205419 | 76 | 96 | 4.0 | 13.0 | 0.00 | 0.00 | 0.00 | 51 | 1004.8 |
| 20260509204919 | 75 | 226 | 6.0 | 14.0 | 0.00 | 0.00 | 0.00 | 51 | 1004.8 |
| 20260509204420 | 75 | 174 | 5.0 | 14.0 | 0.00 | 0.00 | 0.00 | 51 | 1004.7 |
| 20260509203914 | 76 | 233 | 4.0 | 14.0 | 0.00 | 0.00 | 0.00 | 51 | 1004.7 |
| 20260509203416 | 75 | 198 | 3.0 | 14.0 | 0.00 | 0.00 | 0.00 | 52 | 1004.6 |
| 20260509202914 | 74 | 167 | 3.0 | 12.0 | 0.00 | 0.00 | 0.00 | 53 | 1004.6 |
| 20260509202415 | 73 | 204 | 4.0 | 12.0 | 0.00 | 0.00 | 0.00 | 54 | 1004.7 |
| 20260509201916 | 74 | 208 | 3.0 | 8.0 | 0.00 | 0.00 | 0.00 | 54 | 1004.8 |
| 20260509201416 | 74 | 198 | 4.0 | 10.0 | 0.00 | 0.00 | 0.00 | 53 | 1004.9 |
| 20260509200910 | 74 | 200 | 5.0 | 10.0 | 0.00 | 0.00 | 0.00 | 52 | 1005.0 |
| 20260509200410 | 75 | 211 | 4.0 | 10.0 | 0.00 | 0.00 | 0.00 | 51 | 1005.1 |
| 20260509195911 | 75 | 145 | 4.0 | 9.0 | 0.00 | 0.00 | 0.00 | 52 | 1005.2 |
| 20260509195410 | 75 | 174 | 3.0 | 7.0 | 0.00 | 0.00 | 0.00 | 52 | 1005.3 |
| 20260509194412 | 74 | 241 | 3.0 | 8.0 | 0.00 | 0.00 | 0.00 | 53 | 1005.5 |
| 20260509193907 | 74 | 204 | 3.0 | 8.0 | 0.00 | 0.00 | 0.00 | 54 | 1005.6 |
| 20260509192909 | 73 | 268 | 4.0 | 9.0 | 0.00 | 0.00 | 0.00 | 55 | 1005.8 |
| 20260509192406 | 72 | 302 | 4.0 | 9.0 | 0.00 | 0.00 | 0.00 | 55 | 1005.9 |
| 20260509191907 | 72 | 197 | 3.0 | 9.0 | 0.00 | 0.00 | 0.00 | 56 | 1006.0 |
| 20260509191409 | 72 | 203 | 3.0 | 11.0 | 0.00 | 0.00 | 0.00 | 55 | 1005.9 |
| 20260509190902 | 72 | 180 | 4.0 | 11.0 | 0.00 | 0.00 | 0.00 | 55 | 1005.8 |
| 20260509185903 | 71 | 193 | 6.0 | 13.0 | 0.00 | 0.00 | 0.00 | 57 | 1005.9 |
| 20260509185402 | 71 | 225 | 6.0 | 14.0 | 0.00 | 0.00 | 0.00 | 57 | 1005.7 |
| 20260509184903 | 70 | 162 | 4.0 | 14.0 | 0.00 | 0.00 | 0.00 | 57 | 1005.9 |
| 20260509184404 | 70 | 139 | 3.0 | 9.0 | 0.00 | 0.00 | 0.00 | 59 | 1006.1 |
| 20260509182905 | 70 | 207 | 4.0 | 8.0 | 0.00 | 0.00 | 0.00 | 57 | 1006.4 |
| 20260509182403 | 71 | 215 | 3.0 | 10.0 | 0.00 | 0.00 | 0.00 | 56 | 1006.4 |
| 20260509181902 | 71 | 160 | 3.0 | 10.0 | 0.00 | 0.00 | 0.00 | 56 | 1006.4 |
| 20260509181402 | 70 | 163 | 5.0 | 12.0 | 0.00 | 0.00 | 0.00 | 56 | 1006.6 |
| 20260509180901 | 71 | 165 | 6.0 | 16.0 | 0.00 | 0.00 | 0.00 | 56 | 1006.7 |
| 20260509180402 | 71 | 231 | 6.0 | 16.0 | 0.00 | 0.00 | 0.00 | 55 | 1006.7 |
| 20260509175900 | 71 | 235 | 5.0 | 12.0 | 0.00 | 0.00 | 0.00 | 54 | 1006.8 |
| 20260509175357 | 72 | 194 | 4.0 | 12.0 | 0.00 | 0.00 | 0.00 | 53 | 1006.8 |
| 20260509174857 | 72 | 174 | 4.0 | 13.0 | 0.00 | 0.00 | 0.00 | 53 | 1006.9 |
| 20260509174357 | 72 | 201 | 5.0 | 13.0 | 0.00 | 0.00 | 0.00 | 53 | 1006.9 |
| 20260509173856 | 72 | 222 | 6.0 | 13.0 | 0.00 | 0.00 | 0.00 | 53 | 1006.9 |
| 20260509172857 | 72 | 156 | 5.0 | 12.0 | 0.00 | 0.00 | 0.00 | 53 | 1006.9 |
| 20260509171851 | 71 | 198 | 5.0 | 14.0 | 0.00 | 0.00 | 0.00 | 53 | 1007.0 |
| 20260509170851 | 71 | 188 | 5.0 | 13.0 | 0.00 | 0.00 | 0.00 | 55 | 1007.0 |
| 20260509170352 | 71 | 228 | 4.0 | 13.0 | 0.00 | 0.00 | 0.00 | 55 | 1007.1 |
| 20260509165348 | 71 | 200 | 4.0 | 11.0 | 0.00 | 0.00 | 0.00 | 55 | 1007.1 |
| 20260509164846 | 71 | 246 | 4.0 | 10.0 | 0.00 | 0.00 | 0.00 | 55 | 1007.2 |
| 20260509164341 | 70 | 271 | 5.0 | 13.0 | 0.00 | 0.00 | 0.00 | 55 | 1007.3 |
| 20260509163841 | 70 | 212 | 6.0 | 13.0 | 0.00 | 0.00 | 0.00 | 55 | 1007.3 |
| 20260509162840 | 70 | 217 | 3.0 | 12.0 | 0.00 | 0.00 | 0.00 | 56 | 1007.1 |
| 20260509162340 | 69 | 194 | 5.0 | 14.0 | 0.00 | 0.00 | 0.00 | 56 | 1007.3 |
| 20260509161841 | 69 | 27 | 5.0 | 14.0 | 0.00 | 0.00 | 0.00 | 56 | 1007.3 |
| 20260509161341 | 69 | 250 | 3.0 | 11.0 | 0.00 | 0.00 | 0.00 | 55 | 1007.4 |
| 20260509160841 | 69 | 176 | 4.0 | 15.0 | 0.00 | 0.00 | 0.00 | 56 | 1007.3 |
| 20260509155833 | 70 | 292 | 3.0 | 14.0 | 0.00 | 0.00 | 0.00 | 56 | 1007.4 |
| 20260509155335 | 70 | 193 | 3.0 | 10.0 | 0.00 | 0.00 | 0.00 | 56 | 1007.5 |
| 20260509154832 | 70 | 242 | 4.0 | 16.0 | 0.00 | 0.00 | 0.00 | 56 | 1007.5 |
| 20260509154333 | 70 | 177 | 5.0 | 16.0 | 0.00 | 0.00 | 0.00 | 56 | 1007.6 |
| 20260509153832 | 70 | 167 | 4.0 | 10.0 | 0.00 | 0.00 | 0.00 | 56 | 1007.6 |
| 20260509152829 | 69 | 264 | 5.0 | 11.0 | 0.00 | 0.00 | 0.00 | 58 | 1007.6 |
| 20260509152328 | 69 | 224 | 5.0 | 11.0 | 0.00 | 0.00 | 0.00 | 59 | 1007.5 |
| 20260509151830 | 68 | 115 | 5.0 | 9.0 | 0.00 | 0.00 | 0.00 | 59 | 1007.7 |
| 20260509151329 | 68 | 204 | 4.0 | 9.0 | 0.00 | 0.00 | 0.00 | 59 | 1007.8 |
| 20260509150828 | 68 | 208 | 3.0 | 9.0 | 0.00 | 0.00 | 0.00 | 60 | 1007.8 |
| 20260509150329 | 67 | 256 | 4.0 | 10.0 | 0.00 | 0.00 | 0.00 | 60 | 1008.0 |
| 20260509145829 | 67 | 192 | 4.0 | 10.0 | 0.00 | 0.00 | 0.00 | 61 | 1008.0 |
| 20260509144324 | 65 | 169 | 4.0 | 10.0 | 0.00 | 0.00 | 0.00 | 63 | 1008.2 |
| 20260509143822 | 65 | 159 | 3.0 | 10.0 | 0.00 | 0.00 | 0.00 | 64 | 1008.3 |
| 20260509143320 | 65 | 239 | 3.0 | 9.0 | 0.00 | 0.00 | 0.00 | 64 | 1008.4 |
| 20260509142820 | 64 | 184 | 3.0 | 8.0 | 0.00 | 0.00 | 0.00 | 65 | 1008.4 |
| 20260509142320 | 64 | 231 | 4.0 | 12.0 | 0.00 | 0.00 | 0.00 | 65 | 1008.5 |
| 20260509141822 | 63 | 212 | 5.0 | 12.0 | 0.00 | 0.00 | 0.00 | 66 | 1008.5 |
| 20260509141320 | 63 | 250 | 3.0 | 9.0 | 0.00 | 0.00 | 0.00 | 66 | 1008.5 |
| 20260509140819 | 63 | 139 | 4.0 | 10.0 | 0.00 | 0.00 | 0.00 | 67 | 1008.5 |
| 20260509140319 | 63 | 203 | 4.0 | 10.0 | 0.00 | 0.00 | 0.00 | 67 | 1008.4 |
| 20260509135318 | 63 | 187 | 3.0 | 11.0 | 0.00 | 0.00 | 0.00 | 66 | 1008.4 |
| 20260509134819 | 62 | 211 | 3.0 | 10.0 | 0.00 | 0.00 | 0.00 | 67 | 1008.5 |
| 20260509133313 | 62 | 298 | 4.0 | 12.0 | 0.00 | 0.00 | 0.00 | 68 | 1008.6 |
| 20260509132811 | 61 | 214 | 4.0 | 12.0 | 0.00 | 0.00 | 0.00 | 68 | 1008.5 |
| 20260509132311 | 61 | 238 | 5.0 | 12.0 | 0.00 | 0.00 | 0.00 | 68 | 1008.5 |
| 20260509131310 | 61 | 204 | 6.0 | 15.0 | 0.00 | 0.00 | 0.00 | 68 | 1008.5 |
| 20260509130810 | 61 | 225 | 6.0 | 15.0 | 0.00 | 0.00 | 0.00 | 68 | 1008.5 |
| 20260509125809 | 61 | 190 | 5.0 | 12.0 | 0.00 | 0.00 | 0.00 | 68 | 1008.5 |
| 20260509124808 | 60 | 179 | 5.0 | 14.0 | 0.00 | 0.00 | 0.00 | 69 | 1008.6 |
| 20260509123806 | 60 | 232 | 5.0 | 17.0 | 0.00 | 0.00 | 0.00 | 69 | 1008.5 |
| 20260509123308 | 60 | 248 | 5.0 | 13.0 | 0.00 | 0.00 | 0.00 | 69 | 1008.6 |
| 20260509122806 | 60 | 195 | 5.0 | 12.0 | 0.00 | 0.00 | 0.00 | 68 | 1008.5 |
| 20260509122306 | 60 | 208 | 5.0 | 15.0 | 0.00 | 0.00 | 0.00 | 68 | 1008.5 |